User: anonymous   Login
Location: La Comballaz
(46.3780°N, 7.0817°E)
Time: 09:15:07
(UTC+00:00)
Language:

CUTE 1.7 + AOD 2 - Orbit

View from above orbital plane
View from above orbital plane
View from above satellite
View from above satellite

Ground track
Ground track

The orbit data is extracted from the following two-line orbital elements,

1 32785U 08021C   22329.75190332  .00001844  00000-0  19520-3 0  9991
2 32785  97.6797 295.7356 0014167  62.0772 298.1878 14.90274668790570
Epoch (UTC): 25 November 2022 18:02:44
Eccentricity: 0.0014167
inclination: 97.6797°
perigee height: 587 km
apogee height: 607 km
right ascension of ascending node: 295.7356°
argument of perigee: 62.0772°
revolutions per day: 14.90274668
mean anomaly at epoch: 298.1878°
orbit number at epoch: 79057

The dashed part of the orbit path shows where the satellite is in the earth's shadow,  

DLR